(261940) = 1996 FO9 = 2003 SE318 = 2006 OD9

Discovered at Palomar on 2006-07-20 by NEAT.

Orbit

Orbit type: Main Belt

Note: WebGL enabled browser required.

epoch2024-03-31.0
epoch JD2460400.5
perihelion date2021-12-04.73112
perihelion JD2459553.23112
argument of perihelion (°)81.14081
ascending node (°)175.26455
inclination (°)5.63340
eccentricity0.1807004
perihelion distance (AU)1.7586767
Tisserand w.r.t. Jupiter3.7
ΔV w.r.t. Earth (km/sec)8.3
semimajor axis (AU)2.1465611
mean anomaly (°)265.52794
mean daily motion (°/day)0.31339280
aphelion distance (AU)2.534
period (years)3.14
P-vector [x]-0.23465730
P-vector [y]-0.92599480
P-vector [z]-0.29575258
Q-vector [x]0.97204438
Q-vector [y]-0.22098872
Q-vector [z]-0.07933289
absolute magnitude17.4
phase slope0.15
uncertainty0
referenceMPEC 2024-D06
observations used551
oppositions16
arc length (days)10193
first opposition used1996
last opposition used2024
residual rms (arc-secs)0.71
perturbers coarse indicatorM-v
perturbers precise indicator003Ek
first observation date used1996-03-20.0
last observation date used2024-02-15.0
computer nameMPCLINUX
JD of orbit computation2456639.550984
perihelion JD uncertainty (days)2.3112E-05
argument of perihelion uncertainty (°)3.9174E-05
ascending node uncertainty (°)3.8407E-05
inclination uncertainty (°)2.7198E-06
eccentricity uncertainty 3.2127E-08
perihelion distance uncertainty (AU)6.9184E-08
Minimum Orbit Intersection Distances (in AU)
for orbit epoch: 2460400.5, reference: E2024-D06
Mercury1.29942
Venus1.03834
Earth0.75489
Mars0.25772
Jupiter2.51956
Saturn6.52424
Uranus16.2319
Neptune27.3536

Observations

562 total observations over interval: 1996 03 20.17315 – 2024 02 15.316468
These data are available for download (format description).

Date (UT) J2000 RA J2000 Dec Magn Location Ref
1996 03 20.17315 11 24 28.27 +03 43 18.3   691 – Steward Observatory, Kitt Peak-Spacewatch MPC 27053
1996 03 20.19527 11 24 26.97 +03 43 32.0 19.8 V 691 – Steward Observatory, Kitt Peak-Spacewatch MPC 27053
1996 03 20.21703 11 24 25.70 +03 43 45.9   691 – Steward Observatory, Kitt Peak-Spacewatch MPC 27053
1996 03 27.31484 11 18 04.05 +04 55 10.2 19.4 V 691 – Steward Observatory, Kitt Peak-Spacewatch MPC 27053
1996 03 27.33639 11 18 02.92 +04 55 22.7   691 – Steward Observatory, Kitt Peak-Spacewatch MPC 27053
1996 03 27.35732 11 18 01.79 +04 55 34.9   691 – Steward Observatory, Kitt Peak-Spacewatch MPC 27053
2000 09 03.37091 01 28 16.27 +07 33 13.9 21.5 V 691 – Steward Observatory, Kitt Peak-Spacewatch MPS 178630
2000 09 03.39250 01 28 15.74 +07 33 06.6 21.2 V 691 – Steward Observatory, Kitt Peak-Spacewatch MPS 178630
2000 09 03.41452 01 28 15.24 +07 32 59.2 21.0 V 691 – Steward Observatory, Kitt Peak-Spacewatch MPS 178630
2000 10 01.25098 01 07 59.58 +03 54 24.8 20.1   704 – Lincoln Laboratory ETS, New Mexico MPS 178630
2000 10 01.26610 01 07 58.68 +03 54 16.3 20.2   704 – Lincoln Laboratory ETS, New Mexico MPS 178630
2000 10 01.28121 01 07 57.70 +03 54 08.6 20.0   704 – Lincoln Laboratory ETS, New Mexico MPS 178630
2000 10 01.30398 01 07 56.31 +03 53 55.3 19.7   704 – Lincoln Laboratory ETS, New Mexico MPS 178630
2000 10 01.32259 01 07 55.18 +03 53 45.4 20.1   704 – Lincoln Laboratory ETS, New Mexico MPS 178630
2000 10 27.16078 00 44 14.11 +00 25 00.1 21.9 V 691 – Steward Observatory, Kitt Peak-Spacewatch MPS 178630
2000 10 27.18289 00 44 13.15 +00 24 52.1 21.4 V 691 – Steward Observatory, Kitt Peak-Spacewatch MPS 178630
2000 10 27.21477 00 44 11.68 +00 24 40.3 21.1 V 691 – Steward Observatory, Kitt Peak-Spacewatch MPS 178630
2003 09 16.33674 23 32 09.29 -02 28 37.2 19.7 V 691 – Steward Observatory, Kitt Peak-Spacewatch MPS 178630
2003 09 16.36393 23 32 07.69 -02 28 53.2 19.6 V 691 – Steward Observatory, Kitt Peak-Spacewatch MPS 178630
2003 09 16.39103 23 32 06.09 -02 29 09.4 19.8 V 691 – Steward Observatory, Kitt Peak-Spacewatch MPS 178630
2003 09 22.23895 23 26 44.74 -03 26 05.0 19.6 R 699 – Lowell Observatory-LONEOS MPS 178630
2003 09 22.25893 23 26 43.76 -03 26 15.6   699 – Lowell Observatory-LONEOS MPS 178630
2003 09 22.27895 23 26 42.52 -03 26 27.5   699 – Lowell Observatory-LONEOS MPS 178630
2003 09 22.29881 23 26 41.41 -03 26 39.3   699 – Lowell Observatory-LONEOS MPS 178630
2003 09 28.20528 23 21 42.86 -04 20 19.7 20.3 V 691 – Steward Observatory, Kitt Peak-Spacewatch MPS 178630
2003 09 28.23378 23 21 41.44 -04 20 34.6 20.3 V 691 – Steward Observatory, Kitt Peak-Spacewatch MPS 178630
2003 09 28.26494 23 21 39.88 -04 20 50.5 20.2 V 691 – Steward Observatory, Kitt Peak-Spacewatch MPS 178630
2003 09 29.77062 23 20 30.11 -04 33 39.1   A50 – Andrushivka Astronomical Observatory MPC 57528
2003 09 29.77414 23 20 29.92 -04 33 42.8   A50 – Andrushivka Astronomical Observatory MPC 57528
2003 09 29.77765 23 20 29.76 -04 33 45.1 20.0 V A50 – Andrushivka Astronomical Observatory MPC 57528
2004 12 11.385847 07 51 24.032 +12 39 46.31 21.29 V 645 – Apache Point-Sloan Digital Sky Survey MPS 390466
2004 12 11.389319 07 51 23.905 +12 39 46.24 22.15   645 – Apache Point-Sloan Digital Sky Survey MPS 390466
2004 12 12.360167 07 50 49.118 +12 39 31.69 21.39 V 645 – Apache Point-Sloan Digital Sky Survey MPS 390466
2004 12 12.363639 07 50 48.982 +12 39 31.60 22.18   645 – Apache Point-Sloan Digital Sky Survey MPS 390466
2004 12 13.339317 07 50 12.281 +12 39 24.54 21.24 V 645 – Apache Point-Sloan Digital Sky Survey MPS 390466
2004 12 13.342789 07 50 12.139 +12 39 24.50 22.02   645 – Apache Point-Sloan Digital Sky Survey MPS 390466
2004 12 15.296067 07 48 53.548 +12 39 32.53 21.09 V 645 – Apache Point-Sloan Digital Sky Survey MPS 390466
2004 12 15.299539 07 48 53.398 +12 39 32.61 22.04   645 – Apache Point-Sloan Digital Sky Survey MPS 390466
2006 07 20.35220 22 00 12.21 -04 17 55.6 19.4 R 644 – Palomar Mountain/NEAT MPS 175194
2006 07 20.37250 22 00 11.55 -04 18 00.8 20.1 R 644 – Palomar Mountain/NEAT MPS 175194
2006 07 20.39397 22 00 10.86 -04 18 05.6 19.5 R 644 – Palomar Mountain/NEAT MPS 175194
2006 07 21.32985 21 59 43.36 -04 22 00.7 18.8 V 703 – Catalina Sky Survey MPS 175194
2006 07 21.33635 21 59 43.04 -04 22 01.8 19.3 V 703 – Catalina Sky Survey MPS 175194
2006 07 21.34281 21 59 42.82 -04 22 04.5 19.2 V 703 – Catalina Sky Survey MPS 175194
2006 07 21.34927 21 59 42.61 -04 22 04.2 19.0 V 703 – Catalina Sky Survey MPS 175194
2006 07 21.38926 21 59 41.31 -04 22 14.7 19.1 V 703 – Catalina Sky Survey MPS 175194
2006 07 21.39810 21 59 41.10 -04 22 20.7 18.7 V 703 – Catalina Sky Survey MPS 175194
2006 08 14.34329 21 41 07.54 -07 12 57.9 18.4 R 644 – Palomar Mountain/NEAT MPS 177094
2006 08 14.36452 21 41 06.31 -07 13 09.3 18.7 R 644 – Palomar Mountain/NEAT MPS 177094
2006 08 14.38711 21 41 05.00 -07 13 21.9 18.5 R 644 – Palomar Mountain/NEAT MPS 177094
2006 08 16.24362 21 39 23.71 -07 30 23.2 18.5 R 644 – Palomar Mountain/NEAT MPS 177094
2006 08 16.26411 21 39 22.54 -07 30 34.8 18.5 R 644 – Palomar Mountain/NEAT MPS 177094
2006 08 16.26531 21 39 22.45 -07 30 35.3 18.5 R 644 – Palomar Mountain/NEAT MPS 177094
2006 08 16.28480 21 39 21.35 -07 30 46.1 18.5 R 644 – Palomar Mountain/NEAT MPS 177094
2006 08 16.28601 21 39 21.24 -07 30 46.8 18.9 R 644 – Palomar Mountain/NEAT MPS 177094
2006 08 16.30643 21 39 20.08 -07 30 58.2 18.5 R 644 – Palomar Mountain/NEAT MPS 177094
2006 08 18.27870 21 37 32.86 -07 49 17.2 19.1 R 644 – Palomar Mountain/NEAT MPS 177094
2006 08 18.29962 21 37 31.67 -07 49 29.0 18.9 R 644 – Palomar Mountain/NEAT MPS 177094
2006 08 18.32051 21 37 30.46 -07 49 40.7 18.9 R 644 – Palomar Mountain/NEAT MPS 177094
2006 08 19.25058 21 36 40.66 -07 58 22.8 18.7 R 699 – Lowell Observatory-LONEOS MPS 176086
2006 08 19.26880 21 36 39.62 -07 58 32.9   699 – Lowell Observatory-LONEOS MPS 176086
2006 08 19.28703 21 36 38.50 -07 58 42.6   699 – Lowell Observatory-LONEOS MPS 176086
2006 08 19.32468 21 36 36.37 -07 59 04.6   699 – Lowell Observatory-LONEOS MPS 176086
2006 08 23.89027 21 32 38.41 -08 41 50.7 18.5 V A50 – Andrushivka Astronomical Observatory MPS 176086
2006 08 23.89103 21 32 38.42 -08 41 51.2 18.7 V A50 – Andrushivka Astronomical Observatory MPS 176086
2006 08 23.89487 21 32 38.17 -08 41 53.8 19.1 V A50 – Andrushivka Astronomical Observatory MPS 176086
2006 08 23.89870 21 32 37.99 -08 41 55.9 18.8 V A50 – Andrushivka Astronomical Observatory MPS 176086
2006 08 24.90227 21 31 47.91 -08 51 16.0 19.1 V A50 – Andrushivka Astronomical Observatory MPS 176086
2006 08 24.90380 21 31 47.83 -08 51 16.9 19.3 V A50 – Andrushivka Astronomical Observatory MPS 176086
2006 08 24.90610 21 31 47.72 -08 51 18.0 19.4 V A50 – Andrushivka Astronomical Observatory MPS 176086
2006 08 24.90802 21 31 47.62 -08 51 19.3 19.0 V A50 – Andrushivka Astronomical Observatory MPS 176086
2006 08 24.90994 21 31 47.51 -08 51 20.1 18.9 V A50 – Andrushivka Astronomical Observatory MPS 176086
2006 08 28.23125 21 29 09.85 -09 21 49.6 19.0 V 703 – Catalina Sky Survey MPS 177094
2006 08 28.24008 21 29 09.45 -09 21 53.2 19.6 V 703 – Catalina Sky Survey MPS 177094
2006 08 28.24891 21 29 09.02 -09 21 59.5 19.6 V 703 – Catalina Sky Survey MPS 177094
2006 08 28.25776 21 29 08.59 -09 22 03.9 19.1 V 703 – Catalina Sky Survey MPS 177094
2006 08 30.19917 21 27 42.87 -09 39 30.1 20.0   704 – Lincoln Laboratory ETS, New Mexico MPS 177094
2006 08 30.22170 21 27 41.88 -09 39 42.6 19.4   704 – Lincoln Laboratory ETS, New Mexico MPS 177094
2006 08 30.23295 21 27 41.36 -09 39 48.0 19.5   704 – Lincoln Laboratory ETS, New Mexico MPS 177094
2006 09 14.18918 21 20 07.14 -11 37 16.5 20.2 R 644 – Palomar Mountain/NEAT MPS 179384
2006 09 14.21049 21 20 06.73 -11 37 25.0 19.8 R 644 – Palomar Mountain/NEAT MPS 179384
2006 09 14.23110 21 20 06.33 -11 37 33.0 19.6 R 644 – Palomar Mountain/NEAT MPS 179384
2006 09 27.13700 21 19 19.77 -12 46 18.2 20.1 V G96 – Mt. Lemmon Survey MPS 181157
2006 09 27.14499 21 19 19.84 -12 46 20.2 20.3 V G96 – Mt. Lemmon Survey MPS 181157
2006 09 27.15287 21 19 19.92 -12 46 22.0 20.0 V G96 – Mt. Lemmon Survey MPS 181157
